Location: Góry Miechowskie
(50.3599°N, 20.1803°E)
Time: 08:02:29
(UTC+00:00)

A-11 Canister half - Pass Details

Date: 19 September 2024
Orbit: 1524 x 1683 km, 47.3° (Epoch: 12 October)

Event Time Altitude Azimuth Distance (km) Brightness Sun altitude
Rises 19:35:17 0° 283° (WNW) 4,852 12.6 -26.2°
Reaches altitude 10° 19:41:48 10° 253° (WSW) 3,898 11.5 -27.0°
Maximum altitude 19:44:12 11° 238° (WSW) 3,819 11.2 -27.3°
Drops below altitude 10° 19:46:38 10° 224° (SW) 3,916 11.1 -27.6°
Enters shadow 19:52:11 - 197° (SSW) 4,694 11.3 -28.3°
